DW3706 Weather Reports


time (UTC)temp
F
wind
direction
speed
knots
gust
knots
rain 1hr
in
rain 24hr
in
rain mn
in
humidity
%
barometer
mb
20260507212011 68 208 1.7 9.6 0.00 0.21 0.16 29 1005.0
20260507211532 68 17 1.7 9.6 0.00 0.21 0.16 30 1005.0
20260507211010 68 131 0.9 4.3 0.00 0.21 0.16 30 1005.0
20260507210507 68 211 0.9 9.6 0.00 0.21 0.16 29 1005.0
20260507210010 68 102 1.7 9.6 0.00 0.21 0.16 29 1005.0
20260507205506 68 236 3.5 7.0 0.00 0.21 0.16 29 1004.8
20260507205006 69 253 0.9 12.2 0.00 0.21 0.16 29 1004.9
20260507204516 69 96 5.2 9.6 0.00 0.22 0.16 28 1004.9
20260507204006 69 285 0.9 10.4 0.00 0.22 0.16 28 1005.1
20260507203507 69 147 1.7 10.4 0.00 0.22 0.16 28 1005.0
20260507203021 69 351 1.7 7.8 0.00 0.22 0.16 28 1005.1
20260507202508 69 150 2.6 7.8 0.00 0.22 0.16 28 1005.0
20260507202007 69 5 2.6 7.0 0.00 0.22 0.16 29 1005.1
20260507201530 69 321 1.7 8.7 0.00 0.22 0.16 28 1005.1
20260507201008 69 31 1.7 8.7 0.00 0.22 0.16 27 1005.0
20260507200507 68 223 3.5 10.4 0.00 0.22 0.16 27 1005.0
20260507200015 68 233 3.5 10.4 0.00 0.22 0.16 27 1005.1
20260507195508 68 254 1.7 10.4 0.00 0.22 0.16 26 1005.1
20260507195007 69 294 3.5 10.4 0.00 0.22 0.16 27 1005.2
20260507194510 69 242 2.6 7.8 0.00 0.22 0.16 26 1005.3
20260507194009 69 208 1.7 7.0 0.00 0.22 0.16 26 1005.3
20260507193508 69 259 0.9 10.4 0.00 0.22 0.16 26 1005.3
20260507193026 69 289 1.7 10.4 0.00 0.22 0.16 27 1005.3
20260507192505 69 227 1.7 7.8 0.00 0.22 0.16 28 1005.4
20260507192009 68 69 2.6 9.6 0.00 0.22 0.16 29 1005.4
20260507191525 68 221 4.3 9.6 0.00 0.22 0.16 26 1005.4
20260507191010 68 219 0.9 8.7 0.00 0.22 0.16 25 1005.5
20260507190506 69 140 0.9 8.7 0.00 0.22 0.16 26 1005.5
20260507190022 69 67 0.9 11.3 0.00 0.22 0.16 27 1005.5
20260507185504 69 254 3.5 11.3 0.00 0.22 0.16 27 1005.5
20260507185006 69 177 1.7 8.7 0.00 0.22 0.16 29 1005.5
20260507184510 69 227 3.5 7.8 0.00 0.22 0.16 30 1005.5
20260507184005 69 229 1.7 8.7 0.00 0.22 0.16 30 1005.6
20260507183505 68 229 3.5 8.7 0.00 0.22 0.16 31 1005.6
20260507183023 68 239 4.3 7.8 0.00 0.22 0.16 31 1005.8
20260507182506 68 224 1.7 10.4 0.00 0.22 0.16 33 1005.7
20260507182005 68 210 3.5 10.4 0.00 0.22 0.16 32 1005.7
20260507181511 68 237 3.5 9.6 0.00 0.22 0.16 34 1005.9
20260507181008 68 220 0.9 10.4 0.00 0.22 0.16 32 1006.0
20260507180504 67 354 2.6 10.4 0.00 0.22 0.16 34 1005.9
20260507180005 68 182 2.6 9.6 0.00 0.22 0.16 32 1006.0
20260507175503 68 229 3.5 9.6 0.00 0.22 0.16 32 1005.9
20260507175006 68 252 0.9 4.3 0.00 0.22 0.16 35 1005.9
20260507174514 68 158 0.9 12.2 0.00 0.22 0.16 36 1005.8
20260507174004 67 241 6.1 12.2 0.00 0.22 0.16 36 1005.8
20260507173504 67 275 2.6 10.4 0.00 0.22 0.16 36 1005.8
20260507173016 67 275 2.6 10.4 0.00 0.22 0.16 37 1005.8
20260507172506 68 230 2.6 7.8 0.00 0.22 0.16 37 1005.9
20260507172006 67 340 1.7 11.3 0.00 0.22 0.16 39 1006.0
20260507171512 67 275 3.5 11.3 0.00 0.22 0.16 41 1006.0
20260507171009 66 256 2.6 10.4 0.00 0.22 0.16 41 1006.0
20260507170506 66 267 2.6 10.4 0.00 0.22 0.16 41 1006.0
20260507170030 65 234 1.7 4.3 0.00 0.22 0.16 44 1006.1
20260507165503 65 244 0.9 7.8 0.00 0.22 0.16 42 1006.1
20260507165004 65 242 0.9 7.0 0.00 0.22 0.16 44 1006.4
20260507164506 65 236 1.7 6.1 0.00 0.22 0.16 47 1006.4
20260507164004 66 216 1.7 7.8 0.00 0.22 0.16 45 1006.5
20260507163504 66 232 2.6 7.8 0.00 0.22 0.16 45 1006.5
20260507163014 65 226 1.7 8.7 0.00 0.22 0.16 47 1006.5
20260507162506 64 227 1.7 8.7 0.00 0.22 0.16 48 1006.7
20260507162007 64 215 4.3 6.1 0.00 0.22 0.16 46 1006.8
20260507161513 65 5 1.7 5.2 0.00 0.22 0.16 47 1006.8
20260507161004 65 229 1.7 4.3 0.00 0.22 0.16 47 1006.8
20260507160505 65 217 0.9 2.6 0.00 0.22 0.16 50 1006.9
20260507160012 64 288 0.0 7.0 0.00 0.22 0.16 49 1007.0
20260507155505 64 20 1.7 7.0 0.00 0.22 0.16 50 1007.0
20260507155006 64 235 0.9 6.1 0.00 0.22 0.16 48 1007.0
20260507154515 63 272 2.6 6.1 0.00 0.22 0.16 47 1007.1
20260507154009 64 27 1.7 7.8 0.00 0.22 0.16 47 1007.1
20260507153506 64 244 0.9 7.8 0.00 0.22 0.16 49 1007.2
20260507153011 65 233 3.5 7.8 0.00 0.22 0.16 49 1007.2
20260507152504 64 230 2.6 7.8 0.00 0.22 0.16 48 1007.2
20260507152008 64 240 4.3 8.7 0.00 0.22 0.16 47 1007.3
20260507151519 63 236 2.6 8.7 0.00 0.22 0.16 49 1007.3
20260507151008 63 253 0.9 7.8 0.00 0.22 0.16 48 1007.3
20260507150507 63 233 4.3 7.8 0.00 0.22 0.16 47 1007.4
20260507150015 63 231 3.5 7.8 0.00 0.22 0.16 47 1007.4
20260507145506 63 236 1.7 7.8 0.00 0.22 0.16 48 1007.5
20260507145006 63 238 2.6 8.7 0.00 0.22 0.16 50 1007.5
20260507144518 63 243 4.3 8.7 0.00 0.22 0.16 48 1007.6
20260507144007 63 265 0.9 7.0 0.00 0.22 0.16 50 1007.7
20260507143507 63 229 1.7 7.0 0.00 0.22 0.16 51 1007.7
20260507143016 62 346 1.7 5.2 0.00 0.22 0.16 48 1007.6
20260507142507 62 257 1.7 4.3 0.00 0.22 0.16 50 1007.6
20260507142008 62 215 0.9 3.5 0.00 0.22 0.16 50 1007.7
20260507141511 62 318 0.9 5.2 0.00 0.22 0.16 50 1007.8
20260507141007 62 342 0.9 6.1 0.00 0.22 0.16 51 1007.7
20260507140506 61 240 0.9 5.2 0.00 0.22 0.16 52 1007.7
20260507140019 61 47 0.9 5.2 0.00 0.22 0.16 52 1007.7
20260507135506 61 69 0.9 5.2 0.00 0.22 0.16 54 1007.8
20260507135006 60 356 1.7 6.1 0.00 0.22 0.16 53 1007.7
20260507134519 60 319 1.7 6.1 0.00 0.22 0.16 55 1007.8
20260507134007 60 331 1.7 6.1 0.00 0.22 0.16 59 1007.8
20260507133509 59 265 1.7 6.1 0.00 0.22 0.16 62 1007.8
20260507133016 58 349 0.9 6.1 0.00 0.22 0.16 62 1007.7
20260507132507 58 358 1.7 6.1 0.00 0.22 0.16 62 1007.8
20260507132007 58 213 0.9 6.1 0.00 0.22 0.16 66 1008.0
20260507131518 58 86 1.7 6.1 0.00 0.22 0.16 66 1007.9
20260507131007 57 229 0.9 6.1 0.00 0.22 0.16 71 1007.9
20260507130508 56 311 0.9 6.1 0.00 0.22 0.16 73 1007.9
20260507130019 56 79 0.9 5.2 0.00 0.22 0.16 73 1008.0
20260507125512 55 150 1.7 5.2 0.00 0.22 0.16 76 1008.1
20260507125005 54 217 0.9 3.5 0.00 0.22 0.16 78 1008.1
20260507124516 54 254 0.9 6.1 0.00 0.22 0.16 81 1008.2
20260507124007 53 300 1.7 6.1 0.00 0.22 0.16 82 1008.2
20260507123509 52 148 0.0 2.6 0.00 0.22 0.16 83 1008.1
20260507123023 52 248 0.0 4.3 0.00 0.22 0.16 84 1008.3
20260507122507 51 175 0.0 4.3 0.00 0.22 0.16 85 1008.1
20260507122013 51 192 0.0 4.3 0.00 0.22 0.16 85 1008.0
20260507121518 51 358 0.0 4.3 0.00 0.22 0.16 85 1007.9
20260507121007 50 356 0.0 4.3 0.00 0.22 0.16 85 1008.1
20260507120508 50 13 1.7 4.3 0.00 0.22 0.16 85 1007.8
20260507120016 50 278 0.9 3.5 0.00 0.22 0.16 85 1007.9
20260507115506 50 31 0.9 1.7 0.00 0.22 0.16 85 1007.9
20260507115012 50 242 0.9 1.7 0.00 0.22 0.16 85 1008.0
20260507114520 50 108 0.0 1.7 0.00 0.22 0.16 85 1007.9
20260507114011 50 272 0.0 1.7 0.00 0.22 0.16 85 1007.9
20260507113507 50 214 0.0 1.7 0.00 0.22 0.16 86 1007.7
20260507113025 50 317 0.0 3.5 0.00 0.22 0.16 86 1007.7
20260507112508 50 282 0.0 3.5 0.01 0.22 0.16 86 1007.6
20260507112008 50 9 0.0 1.7 0.01 0.22 0.16 86 1007.6
20260507111522 50 277 0.0 2.6 0.01 0.22 0.16 86 1007.8
20260507111007 50 236 0.0 2.6 0.01 0.22 0.16 86 1007.8
20260507110509 49 261 0.0 1.7 0.01 0.22 0.16 87 1007.5
20260507110016 49 339 0.0 1.7 0.02 0.22 0.16 87 1007.5
20260507105506 49 237 0.0 1.7 0.02 0.22 0.16 87 1007.5
20260507105008 49 286 0.0 1.7 0.02 0.22 0.16 87 1007.5
20260507104522 49 239 0.0 1.7 0.03 0.22 0.16 87 1007.8
20260507104010 49 239 0.0 1.7 0.03 0.22 0.16 87 1008.0
20260507103509 49 232 0.0 1.7 0.04 0.22 0.16 87 1008.3
20260507103020 49 232 0.0 0.0 0.04 0.22 0.16 87 1007.9
20260507102506 49 313 0.0 0.0 0.03 0.21 0.15 87 1007.5
20260507102009 49 313 0.0 1.7 0.04 0.21 0.15 87 1007.5
20260507101522 49 232 0.0 1.7 0.04 0.21 0.15 86 1007.8
20260507101009 49 238 0.0 4.3 0.05 0.21 0.15 86 1007.8
20260507100507 50 277 0.0 4.3 0.06 0.21 0.15 86 1007.6
20260507100021 50 284 0.0 2.6 0.06 0.20 0.14 86 1007.4
20260507095510 50 348 0.9 3.5 0.07 0.20 0.14 87 1007.2
20260507095007 50 63 0.0 3.5 0.09 0.20 0.14 86 1007.4
20260507094506 50 5 0.9 3.5 0.09 0.19 0.13 86 1007.3
20260507094003 50 30 0.0 2.6 0.10 0.19 0.13 86 1007.6
20260507093506 50 209 0.9 7.0 0.09 0.18 0.12 86 1007.5
20260507093010 50 223 0.9 7.0 0.09 0.18 0.12 86 1007.2
20260507092504 51 346 1.7 5.2 0.09 0.18 0.12 86 1006.9
20260507092002 51 6 0.9 4.3 0.09 0.17 0.11 86 1006.8
20260507091504 51 30 0.9 4.3 0.10 0.17 0.11 86 1007.1
20260507091003 51 322 0.9 4.3 0.09 0.16 0.10 85 1007.2
20260507090504 51 246 0.9 7.8 0.08 0.15 0.09 85 1007.4
20260507090010 51 14 1.7 7.8 0.08 0.14 0.08 84 1007.3
20260507085504 52 211 0.9 3.5 0.07 0.13 0.07 84 1007.4
20260507085007 52 250 0.0 3.5 0.05 0.11 0.05 84 1007.3
20260507084529 52 144 0.0 4.3 0.04 0.10 0.04 84 1007.4
20260507084007 53 37 0.0 4.3 0.03 0.09 0.03 84 1007.1
20260507083511 53 9 0.0 3.5 0.03 0.09 0.03 85 1006.8
20260507083009 53 267 0.9 3.5 0.03 0.09 0.03 85 1006.8
20260507082507 54 347 0.0 3.5 0.03 0.09 0.03 85 1006.8
20260507082009 54 336 0.9 4.3 0.02 0.08 0.02 85 1006.7
20260507081505 54 346 0.0 4.3 0.01 0.07 0.01 84 1007.0
20260507081003 54 22 0.9 2.6 0.01 0.07 0.01 83 1007.2
20260507080504 54 340 0.0 2.6 0.01 0.07 0.01 83 1007.2
20260507080009 54 350 0.0 4.3 0.00 0.06 0.00 82 1006.9
20260507075503 54 56 0.0 6.1 0.00 0.06 0.00 81 1006.8
20260507075007 55 42 0.9 7.0 0.00 0.06 0.00 80 1006.7
20260507074514 55 48 1.7 7.0 0.00 0.06 0.00 79 1006.9
20260507074004 55 11 0.9 5.2 0.00 0.06 0.00 78 1006.6
20260507073508 55 352 0.9 6.1 0.00 0.06 0.00 78 1006.5
20260507073019 55 284 1.7 6.1 0.00 0.06 0.00 77 1006.2
20260507072507 55 346 0.9 6.1 0.00 0.06 0.00 77 1006.1
20260507072003 55 3 2.6 6.1 0.00 0.06 0.00 79 1006.0
20260507071520 55 3 1.7 4.3 0.00 0.06 0.00 80 1006.1
20260507071008 56 352 0.0 5.2 0.00 0.06 0.00 81 1006.4
20260507070504 56 350 0.9 6.1 0.00 0.06 0.00 81 1006.1
20260507070010 56 354 0.9 6.1 0.00 0.06 0.00 81 1006.0
20260507065506 56 291 0.9 6.1 0.00 0.06 0.00 82 1006.2
20260507065004 56 178 1.7 6.1 0.00 0.06 0.00 83 1006.2
20260507064509 57 326 1.7 7.8 0.00 0.06 0.00 84 1006.2
20260507064004 57 356 1.7 7.8 0.00 0.06 0.00 83 1006.2
20260507063508 57 25 0.9 5.2 0.00 0.06 0.00 83 1006.4
20260507063005 57 360 0.9 7.0 0.00 0.06 0.00 83 1006.2
20260507062503 57 102 0.9 7.0 0.00 0.06 0.00 83 1005.9
20260507062011 57 24 2.6 5.2 0.00 0.06 0.00 83 1006.0
20260507061522 57 350 0.0 4.3 0.00 0.06 0.00 84 1006.0
20260507061004 58 8 0.9 4.3 0.00 0.06 0.00 84 1006.1
20260507060506 58 357 0.9 4.3 0.00 0.06 0.00 84 1006.1
20260507060021 58 13 0.9 6.1 0.00 0.06 0.00 84 1006.1
20260507055504 58 178 0.9 6.1 0.00 0.06 0.00 84 1006.4
20260507055004 58 354 1.7 5.2 0.00 0.06 0.00 85 1006.2
20260507054508 59 5 1.7 5.2 0.00 0.06 0.00 86 1006.6
20260507054010 59 228 0.0 2.6 0.00 0.06 0.00 86 1006.5
20260507053506 59 228 0.9 2.6 0.00 0.06 0.00 86 1006.5
20260507053013 59 9 0.0 2.6 0.00 0.06 0.00 86 1006.5
20260507052507 59 277 0.9 2.6 0.00 0.06 0.00 87 1006.3
20260507052007 59 286 0.0 3.5 0.00 0.06 0.00 87 1006.2
20260507051512 59 259 0.9 6.1 0.00 0.06 0.00 87 1006.1
20260507051007 59 321 1.7 4.3 0.00 0.06 0.00 88 1006.3
20260507050506 59 206 0.9 7.0 0.00 0.06 0.00 88 1006.3
20260507050024 59 190 2.6 6.1 0.00 0.06 0.00 89 1006.4
20260507045507 59 242 1.7 6.1 0.00 0.06 0.00 89 1006.2
20260507045007 59 233 3.5 6.1 0.00 0.06 0.00 90 1006.2
20260507044505 60 231 1.7 3.5 0.00 0.06 0.00 90 1006.1
20260507044005 59 214 0.9 4.3 0.00 0.06 0.00 91 1006.0
20260507043506 59 246 1.7 5.2 0.00 0.06 0.00 91 1006.1
20260507043011 59 213 2.6 5.2 0.00 0.06 0.00 91 1006.0
20260507042507 59 248 0.9 3.5 0.00 0.06 0.00 91 1006.0
20260507042006 59 223 1.7 7.0 0.00 0.06 0.00 91 1006.0
20260507041516 59 265 1.7 7.8 0.00 0.06 0.00 91 1006.0
20260507041010 59 223 2.6 8.7 0.00 0.06 0.00 91 1006.2
20260507040506 59 217 2.6 8.7 0.00 0.06 0.00 91 1006.2
20260507040018 59 234 2.6 7.0 0.00 0.06 0.00 91 1006.4
20260507035508 59 239 2.6 8.7 0.00 0.06 0.06 91 1006.2
20260507035004 59 218 3.5 8.7 0.00 0.06 0.06 91 1006.4
20260507034513 59 242 3.5 7.8 0.00 0.06 0.06 91 1006.2
20260507034008 59 242 3.5 7.8 0.00 0.06 0.06 91 1006.2
20260507033510 59 240 2.6 9.6 0.00 0.06 0.06 91 1006.2
20260507033010 58 233 4.3 9.6 0.00 0.06 0.06 91 1006.1
20260507032507 58 250 2.6 8.7 0.00 0.06 0.06 91 1006.1
20260507032007 58 279 2.6 8.7 0.00 0.06 0.06 91 1006.0
20260507031507 58 203 4.3 8.7 0.00 0.06 0.06 91 1006.0
20260507031009 58 259 2.6 8.7 0.00 0.06 0.06 91 1005.8
20260507030509 58 228 3.5 8.7 0.00 0.06 0.06 91 1005.7
20260507030020 58 236 3.5 8.7 0.00 0.06 0.06 91 1005.6
20260507025509 58 212 2.6 7.8 0.00 0.06 0.06 91 1005.6
20260507025008 58 229 1.7 7.0 0.00 0.06 0.06 91 1005.8
20260507024522 58 248 3.5 8.7 0.00 0.06 0.06 91 1006.0
20260507024012 58 213 2.6 8.7 0.00 0.06 0.06 91 1005.9
20260507023508 58 261 3.5 8.7 0.00 0.06 0.06 91 1005.8
20260507023020 58 247 4.3 8.7 0.00 0.06 0.06 91 1005.8
20260507022511 58 249 6.1 8.7 0.00 0.06 0.06 91 1005.8
20260507022007 58 254 2.6 7.8 0.00 0.06 0.06 91 1005.8
20260507021514 58 263 4.3 9.6 0.00 0.06 0.06 91 1005.9
20260507021007 57 259 4.3 9.6 0.00 0.06 0.06 91 1005.9
20260507020508 57 269 3.5 9.6 0.00 0.06 0.06 91 1005.8
20260507020016 57 219 1.7 9.6 0.00 0.06 0.06 91 1005.9
20260507015506 57 246 2.6 8.7 0.00 0.06 0.06 91 1005.8
20260507015010 57 214 1.7 9.6 0.00 0.06 0.06 91 1005.9
20260507014511 57 249 3.5 8.7 0.00 0.06 0.06 91 1006.1
20260507014009 57 232 3.5 9.6 0.00 0.06 0.06 91 1006.0
20260507013507 57 232 4.3 10.4 0.00 0.06 0.06 91 1006.1
20260507013026 57 246 3.5 10.4 0.00 0.06 0.06 91 1006.1
20260507012506 57 252 4.3 11.3 0.00 0.06 0.06 90 1006.3
20260507012012 57 233 4.3 11.3 0.00 0.06 0.06 90 1006.2
20260507011528 57 228 4.3 10.4 0.00 0.06 0.06 90 1006.3
20260507011004 57 252 6.1 11.3 0.00 0.06 0.06 90 1006.4
20260507010511 57 258 5.2 11.3 0.00 0.06 0.06 90 1006.4
20260507010023 57 237 5.2 12.2 0.01 0.06 0.06 90 1006.4
20260507005504 57 250 6.1 12.2 0.01 0.06 0.06 90 1006.4
20260507005006 57 261 4.3 12.2 0.01 0.06 0.06 90 1006.4
20260507004520 57 233 2.6 9.6 0.01 0.06 0.06 90 1006.3
20260507004007 57 254 2.6 11.3 0.01 0.06 0.06 90 1006.3
20260507003510 57 260 4.3 11.3 0.01 0.06 0.06 90 1006.4
20260507003019 57 272 4.3 13.0 0.02 0.06 0.06 90 1006.3
20260507002503 57 227 6.1 13.0 0.02 0.06 0.06 90 1006.2
20260507002003 57 234 5.2 11.3 0.02 0.06 0.06 90 1006.2
20260507001507 57 228 3.5 11.3 0.02 0.06 0.06 90 1006.1
20260507001003 57 250 3.5 11.3 0.02 0.06 0.06 90 1006.1
20260507000506 57 236 5.2 11.3 0.02 0.06 0.06 90 1006.0
20260507000012 57 223 5.2 9.6 0.01 0.05 0.05 90 1006.1
20260506235509 57 242 5.2 12.2 0.01 0.05 0.05 90 1006.1
20260506235007 57 199 3.5 12.2 0.01 0.05 0.05 90 1006.0
20260506234512 57 259 5.2 12.2 0.01 0.05 0.05 89 1006.0
20260506234011 57 236 6.1 12.2 0.01 0.05 0.05 89 1005.9
20260506233509 58 243 6.1 12.2 0.01 0.05 0.05 89 1005.9
20260506233009 58 215 6.1 11.3 0.00 0.04 0.04 89 1006.0
20260506232506 58 245 5.2 11.3 0.00 0.04 0.04 89 1005.9
20260506232010 58 247 5.2 11.3 0.01 0.04 0.04 89 1005.9
20260506231507 58 241 5.2 11.3 0.01 0.04 0.04 89 1006.2
20260506231004 58 250 4.3 10.4 0.01 0.04 0.04 89 1006.4
20260506230504 58 240 7.0 10.4 0.01 0.04 0.04 89 1006.4
20260506230013 58 217 5.2 10.4 0.01 0.04 0.04 89 1006.2
20260506225504 58 238 5.2 10.4 0.01 0.04 0.04 89 1006.1
20260506225006 58 257 5.2 12.2 0.02 0.04 0.04 89 1006.2
20260506224515 58 246 6.1 12.2 0.02 0.04 0.04 89 1006.3
20260506224008 58 188 4.3 12.2 0.02 0.04 0.04 89 1006.5
20260506223507 58 220 7.0 12.2 0.02 0.04 0.04 89 1006.6
20260506223016 58 261 3.5 9.6 0.03 0.04 0.04 89 1006.6
20260506222510 59 199 4.3 9.6 0.03 0.04 0.04 88 1006.7
20260506222005 59 263 2.6 11.3 0.02 0.03 0.03 88 1006.7
20260506221516 59 213 3.5 11.3 0.02 0.03 0.03 88 1006.8
20260506221009 59 256 6.1 11.3 0.02 0.03 0.03 87 1006.9
20260506220504 59 256 3.5 11.3 0.02 0.03 0.03 87 1006.8
20260506220008 60 223 3.5 11.3 0.02 0.03 0.03 88 1006.9
20260506215507 60 186 3.5 9.6 0.02 0.03 0.03 87 1007.1
20260506215009 60 198 5.2 10.4 0.01 0.02 0.02 87 1007.1
20260506214510 60 209 3.5 11.3 0.02 0.02 0.02 87 1007.1
20260506214007 60 206 4.3 11.3 0.02 0.02 0.02 86 1007.1
20260506213510 60 229 4.3 11.3 0.02 0.02 0.02 86 1007.0
20260506213025 60 231 3.5 13.0 0.01 0.01 0.01 86 1007.0
20260506212507 60 231 3.5 13.9 0.01 0.01 0.01 86 1007.1